AURA

Last updated on Fri Apr 25 2025 00:02:24 GMT+0000 (Coordinated Universal Time)

1 28376U 04026A 25113.80104785 .00002006 00000+0 42489-3 0 9990 2 28376 98.2901 63.5235 0001419 93.6875 266.4488 14.60312873104989
UTC large
Height (km)
Speed (km/s)
/
Latitude / Longitude
Inclination (degrees)
Orbital Period (minutes)
Azimuth
Elevation
Range (km)
Doppler Factor

Next 0 passes for location: London (51.5072 / 0.1276)

Sorry there are no passes over London.